Weather History for Moses Lake, WA

Change the Weather History Date:

Monday, June 20, 2011

  Actual Average Record
Temperature  
Mean Temperature 63 °F 67 °F  
Max Temperature 79 °F 81 °F 95 °F (1985)
Min Temperature 47 °F 53 °F 43 °F (1986)
Degree Days  
Heating Degree Days 2 1  
Month to date heating degree days 65 43  
Since 1 June heating degree days 65 43  
Since 1 July heating degree days 6248 5870  
Cooling Degree Days 0 3  
Month to date cooling degree days 9 44  
Year to date cooling degree days 9 69  
Since 1 June cooling degree days 9 44  
Growing Degree Days 13 (Base 50)    
Moisture  
Dew Point 45 °F    
Average Humidity 58    
Maximum Humidity 86    
Minimum Humidity 30    
Precipitation  
Precipitation 0.00 in 0.02 in 0.43 in (2013)
Month to date precipitation 0.24 0.61  
Year to date precipitation 4.24 4.63  
Sea Level Pressure  
Sea Level Pressure 29.91 in    
Wind  
Wind Speed 5 mph (SSW)    
Max Wind Speed 13 mph    
Max Gust Speed 16 mph    
Visibility 10 miles    
Events      
T = Trace of Precipitation, MM = Missing Value Source: NWS Daily Summary

Daily Weather History Graph

Daily Weather History Graph

Search for Another Location

Airport:

Trip Planner

Search our weather history database for the weather conditions in past years. The results will help you decide how hot, cold, wet, or windy it might be!

Date:

Astronomy

Jun. 20, 2011 Rise Set
Actual Time 5:01 AM PDT 8:56 PM PDT
Civil Twilight 4:20 AM PDT 9:36 PM PDT
Nautical Twilight 3:25 AM PDT 10:32 PM PDT
Astronomical Twilight 2:00 AM PDT 11:57 PM PDT
Moon 11:43 PM PDT (6/20) 10:24 AM PDT (6/20)
Length of Visible Light 17h 16m
Length of Day
15h 55m
Waning Gibbous, 75% of the Moon is Illuminated
Jun 20
Waning Gibbous
Jun 23
Last Quarter
Jul 1
New
Jul 7
First Quarter
Jul 14
Full

Hourly Weather History & Observations

Time (PDT) Temp. Dew Point Humidity Pressure Visibility Wind Dir Wind Speed Gust Speed Precip Events Conditions
12:52 AM 57.0 °F 41.0 °F 55% 29.87 in 10.0 mi NW 9.2 mph - N/A   Clear
1:52 AM 57.0 °F 44.1 °F 62% 29.87 in 10.0 mi SW 3.5 mph - N/A   Clear
2:52 AM 53.1 °F 44.1 °F 71% 29.89 in 10.0 mi Calm Calm - N/A   Clear
3:52 AM 50.0 °F 44.6 °F 82% 29.91 in 10.0 mi SSE 3.5 mph - N/A   Clear
4:52 AM 48.0 °F 44.1 °F 86% 29.91 in 10.0 mi Calm Calm - N/A   Clear
5:52 AM 48.9 °F 44.1 °F 83% 29.92 in 10.0 mi Calm Calm - N/A   Clear
6:52 AM 53.1 °F 46.0 °F 77% 29.94 in 10.0 mi Calm Calm - N/A   Clear
7:52 AM 57.2 °F 44.6 °F 63% 29.96 in 10.0 mi East 3.5 mph - N/A   Clear
8:52 AM 63.0 °F 43.0 °F 48% 29.95 in 10.0 mi Calm Calm - N/A   Clear
9:52 AM 66.9 °F 42.1 °F 40% 29.94 in 10.0 mi SW 6.9 mph - N/A   Clear
10:52 AM 69.1 °F 42.1 °F 38% 29.94 in 10.0 mi SSE 5.8 mph - N/A   Clear
11:52 AM 72.0 °F 42.1 °F 34% 29.94 in 10.0 mi WSW 10.4 mph - N/A   Clear
12:52 PM 72.0 °F 43.0 °F 35% 29.93 in 10.0 mi SSW 6.9 mph - N/A   Clear
1:52 PM 73.9 °F 44.1 °F 34% 29.92 in 10.0 mi Variable 4.6 mph - N/A   Clear
2:52 PM 75.2 °F 42.8 °F 31% 29.93 in 10.0 mi West 5.8 mph - N/A   Clear
3:52 PM 75.9 °F 44.1 °F 32% 29.91 in 10.0 mi SSE 8.1 mph - N/A   Clear
4:52 PM 77.0 °F 44.1 °F 31% 29.89 in 10.0 mi Variable 3.5 mph - N/A   Clear
5:52 PM 77.0 °F 44.1 °F 31% 29.88 in 10.0 mi Calm Calm - N/A   Clear
6:52 PM 78.1 °F 44.1 °F 30% 29.88 in 10.0 mi South 4.6 mph - N/A   Clear
7:52 PM 75.2 °F 48.2 °F 38% 29.89 in 10.0 mi SE 10.4 mph - N/A   Clear
8:52 PM 70.0 °F 48.9 °F 47% 29.87 in 10.0 mi SE 5.8 mph - N/A   Clear
9:52 PM 69.8 °F 48.2 °F 46% 29.89 in 10.0 mi South 8.1 mph - N/A   Clear
10:52 PM 64.9 °F 48.9 °F 56% 29.89 in 10.0 mi SW 9.2 mph - N/A   Clear
11:52 PM 63.0 °F 48.9 °F 60% 29.90 in 10.0 mi West 6.9 mph - N/A   Clear